Find Starlink 36499

NORAD ID: 67359 Int'l Des: 2026-003 Owner: SPXS Country: US Constellation: starlink operational
LEOCIRCULAR

リアルタイム位置

3D地球を読み込み中...

Starlink 36499について

説明を読み込み中...

次回通過

Passes for default location (London). Set your location on the main map for personalized predictions.

高度履歴

Loading altitude history...

軌道要素

1 67359U 26003AB 26107.03629258 .00007578 00000-0 28477-3 0 9990
2 67359 43.0032 10.9259 0000509 336.6964 23.3865 15.27561817 14680
Epoch: Apr 17, 2026 • Age: 18 hours

現在のステータス

高度 485.5 km
速度 7.63 km/s
衛星直下点 39.78°N, 53.01°W
打ち上げ日 Jan 9, 2026
運用期間 0.2 years
タイプ internet

技術仕様

分類 Payload
質量 575.00 kg
乾燥質量 530.00 kg
総質量 575.00 kg
長さ 0.30 m
直径 4.10 m
スパン 29.00 m
形状 Box + pan
製造者 SPXS
バスタイプ Starlink V2MO
フェーズステータス In Orbit
所有者/国 SPXS/US

Most Searched